Regional Weather Roundup
Issued by NWS Charleston, SC

Current Version | Previous Version | Text Only | Print | Product List | Glossary On
Versions: 1 2 3 4 5 6 7 8 9 10 11 12 13 14 15 16 17 18 19 20 21 22 23 24 25 26 27 28 29 30 31 32 33 34 35 36 37 38 39 40 41 42 43 44 45 46 47 48 49 50
000 ASUS42 KCHS 300025 RWRCHS REGIONAL WEATHER ROUNDUP NATIONAL WEATHER SERVICE CHARLESTON SC 800 PM EDT WED OCT 29 2014 NOTE: "FAIR" INDICATES FEW OR NO CLOUDS BELOW 12,000 FEET WITH NO SIGNIFICANT WEATHER AND/OR OBSTRUCTIONS TO VISIBILITY. NOT ALL STATIONS ARE QUALITY CONTROLLED BY THE NATIONAL WEATHER SERVICE. USE DATA WITH CAUTION...ESPECIALLY DEWPOINT OBSERVATIONS. SCZ027-030-031-034>040-042>050-300100- ...SOUTH CAROLINA... CITY SKY/WX TMP DP RH WIND PRES REMARKS N CHARLESTON MOCLDY 72 65 78 S8 29.98R 6HR MIN TEMP: 72; 6HR MAX TEMP: 84; WATERFRONT PRK N/A 72 N/A N/A SW6 N/A FORT JOHNSON NOT AVBL JOHNS ISLAND MOCLDY 72 72 100 CALM 29.98F PINOPOLIS NOT AVBL MONCKS CORNER FAIR 72 68 88 CALM 29.97S SUMMERVILLE FAIR 70 64 83 CALM 29.98S BEAUFORT MCAS PTCLDY 72 66 81 CALM 29.92S BEAUFORT ARPT FAIR 72 70 94 S3 29.98S HILTON HEAD IS CLEAR 73 68 83 S6 30.00S GEORGETOWN NOT AVBL WALTERBORO PTCLDY 70 64 83 CALM 29.99S ORANGEBURG MOCLDY 68 63 84 SW5 29.97S 6HR MIN TEMP: 67; 6HR MAX TEMP: 82; 6HR PCP: TRACE; BARNWELL FAIR 68 66 94 CALM 29.97F FOG AIKEN CLOUDY 68 66 94 S3 30.01R MANNING MOCLDY 72 63 73 SW3 29.96F KINGSTREE NOT AVBL COLUMBIA PTCLDY 72 61 68 SW5 29.95R 6HR MIN TEMP: 72; 6HR MAX TEMP: 84; 6HR PCP: TRACE; SUMTER MOCLDY 73 62 69 SW10 29.94R 6HR MIN TEMP: 73; 6HR MAX TEMP: 83; FLORENCE MOCLDY 68 64 87 NW5 29.95R 6HR MIN TEMP: 68; 6HR MAX TEMP: 82; 6HR PCP: 0.16; MYRTLE BEACH CLEAR 73 64 73 SW9 29.96R N MYRTLE BEACH MOCLDY 72 66 81 SW13 29.95S 6HR MIN TEMP: 72; 6HR MAX TEMP: 79; $$ GAZ063-065-086>088-099>101-113>116-118-119-134-136>141-150-300100- ...GEORGIA... CITY SKY/WX TMP DP RH WIND PRES REMARKS SAVANNAH ARPT PTCLDY 73 65 75 S7 29.99R 6HR MIN TEMP: 73; 6HR MAX TEMP: 84; HUNTER AAF CLEAR 71 68 89 S6 29.97R 6HR MIN TEMP: 71; 6HR MAX TEMP: 84; FORT STEWART CLEAR 69 62 79 E1 29.97S 6HR MIN TEMP: 69; 6HR MAX TEMP: 84; STATESBORO NOT AVBL SYLVANIA CLEAR 72 70 93 S3 29.99S CLAXTON FAIR 68 64 88 CALM 29.98S THOMSON MOCLDY 67 67 100 W3 30.03R AUGUSTA-BUSH PTCLDY 67 64 90 CALM 29.97R 6HR MIN TEMP: 67; 6HR MAX TEMP: 80; 6HR PCP: 0.09; AUGUSTA-DANIEL CLOUDY 73 62 68 CALM 29.98R SWAINSBORO FAIR 68 68 100 MISG 29.99S VIDALIA PTCLDY 68 61 77 CALM 29.99S ALMA MOCLDY 67 59 75 CALM 29.98S 6HR MIN TEMP: 67; 6HR MAX TEMP: 84; WAYCROSS PTCLDY 72 65 80 SW3 29.99S JESUP FAIR 70 64 83 CALM 29.99S BRUNSWICK CLEAR 73 68 83 CALM 30.00S SAINT SIMONS CLEAR 72 69 90 SE5 30.00R 6HR MIN TEMP: 72; 6HR MAX TEMP: 81; $$ SCZ027-028-034-036>038-045-046-048>050-GAZ119-141-300100- ...LAKE AND SUPPLEMENTAL COASTAL OBSERVATIONS... STATION/POSITION TIME TEMP WIND PRES WAVE SWELL AIR SEA DIR/SP/G HT/PER HT/PER/DIR (UTC) (F) (DEG/KT/KT) (MB) (FT/S) (FT/S/D) UPR LAKE MARION NOT AVBL WINYAH BAY 0000 71 200/ 6 1014.0S LAKE MURRAY 2300 75 240/ 6/ 8 1013.5R ACE BASIN NERRS 0000 72 CALM 1015.0S FORT PULASKI 0000 72 160/ 3/ 6 1015.6F SAPELO ISLAND NOT AVBL $$ ANZ835-935-AMZ111-154-330-350-352-354-374-450-454-472-300100- ...C-MAN AND BUOY OBSERVATIONS... STATION/POSITION TIME TEMP WIND PRES WAVE SWELL AIR SEA DIR/SP/G HT/PER HT/PER/DIR (UTC) (F) (DEG/KT/KT) (MB) (FT/S) (FT/S/D) FOLLY BEACH CMAN 0000 73 200/ 9/ 10 1015.7R BUOY 41004 0000 76 77 210/ 12/ 14 1015.1R 2/ 4 2/ 9 BUOY 41008 0000 74 74 160/ 10/ 12 1015.7R 1/ 7 2/100/ 7 5E ST. MARYS GA 0000 76 N/A 1/ 3 FRYING PAN BUOY 0000 75 73 220/ 14/ 16 1015.5R 3/ 5 BUOY 41025 0000 76 210/ 16/ 19 1014.2R 4/ 5 CAPE LOOKOUT NC 0000 72 220/ 9/ 10 1014.2S BUOY 41002 NOT AVBL BUOY 41010 0000 78 81 40/ 6/ 8 1016.7S 2/ 6 2/110/ 6 BUOY 41012 NOT AVBL ST AUGUSTINE FL 0000 77 150/ 11/ 12 1016.6R CAPERS NEARSHORE 2300 73 240/ 12/ 14 N/A FRIPP NEARSHORE NOT AVBL $$

USA.gov is the U.S. government's official web portal to all federal, state and local government web resources and services.